User: anonymous   Login
Location: Dessau
(51.7984°N, 12.2168°E)
Time: 14:50:51
(UTC+02:00)
Language:

Tiangong 2 - Orbit

View from above orbital plane
View from above orbital plane
View from above satellite
View from above satellite

Ground track
Ground track

The orbit data is extracted from the following two-line orbital elements,

1 41765U 16057A   18143.16161706  .00003109  00000-0  39968-4 0  9999
2 41765  42.7847 132.1044 0002409  73.2248  39.5707 15.61319008 96070
Epoch (UTC): 23 May 2018 03:52:43
Eccentricity: 0.0002409
inclination: 42.7847°
perigee height: 382 km
apogee height: 385 km
right ascension of ascending node: 132.1044°
argument of perigee: 73.2248°
revolutions per day: 15.61319008
mean anomaly at epoch: 39.5707°
orbit number at epoch: 9607

The dashed part of the orbit path shows where the satellite is in the earth's shadow,  

DLR